CZ-4B DEB (46480 NORAD) Tracking and Keplerian Element Data

This shows tracking and keplerian element data for the satellite.

Feedback or suggestion? Click here.




ElementValue
Catalog46480
NameCZ-4B DEB
Epoch Orbit436
Epoch Day300.64745737
Epoch Year2020
RAAN15.7813
Inclination97.9794
Eccentricity0.003634
Argument of Perigee284.9183
Mean Anonmoly74.8007
Mean Motion14.80822412
Decay Rate5.47E-06
L11 46480U 20067C 20300.64745737 .00000547 00000-0 77234-4 0 9998
L22 46480 97.9794 15.7813 0036340 284.9183 74.8007 14.80822412 4366

Live tracking and technical data element details for CZ-4B DEB (NORAD 46480). CZ-4B DEB can be tracked NOW for your location showing map with azimuth and elevation plus other details from your city location.

Track the satellite on the map from your city or location and see movement details for azimuth, elevation, latitude, longitude, range, height, and movement on the map or in text.







IsCatalogInMostPopularTable: catalog: 46480, numindb: 19
Update: records affected: 1



GetName: 46480 CZ-4B DEB

Hit Count: updated at: Sat, 05 Dec 2020 06:18:25 GMT